Location: Gälforsberget
(66.6500°N, 22.4167°E)
Time: 07:00:29
(UTC+00:00)

Okean O Rocket - Pass Details

Date: 11 April 2026
Orbit: 613 x 635 km, 98.0° (Epoch: 13 May)

Event Time Altitude Azimuth Distance (km) Brightness Sun altitude
Rises 20:44:59 0° 217° (SW) 2,915 4.8 -12.3°
Reaches altitude 10° 20:47:57 10° 239° (WSW) 2,008 4.1 -12.5°
Maximum altitude 20:50:42 16° 278° (W) 1,637 4.2 -12.6°
Drops below altitude 10° 20:53:26 10° 318° (NW) 2,007 5.5 -12.7°
Sets 20:56:25 0° 340° (NNW) 2,914 7.1 -12.8°
